Location: Iesi
(43.5167°N, 13.2333°E)
Time: 17:11:45
(UTC+00:00)

ERS-1 Rocket - Pass Details

Date: 08 August 2020
Orbit: 753 x 757 km, 98.5° (Epoch: 22 September)

Event Time Altitude Azimuth Distance (km) Brightness Sun altitude
Exits shadow 19:56:08 23° 111° (ESE) 1,557 4.0 -15.6°
Maximum altitude 19:58:20 34° 67° (ENE) 1,239 3.9 -15.9°
Drops below altitude 10° 20:02:50 10° 4° (N) 2,290 6.0 -16.5°
Sets 20:05:18 0° 356° (N) 3,219 7.0 -16.8°
